This demonstration page uses our WeatherBlox Daily Observations layout. Learn more.

Left ArrowRight Arrow

Hourly Observations for November 10, 2015

Temp ( °F °C ) Dew Point ( °F °C ) Humidity (%) Winds ( mph kmh ) Pressure ( in mb ) Visibility ( mi km ) Precip ( " mm )
12:15 am 00:15 Mostly Cloudy with Fog 40 4.4 37 2.8 89 89 Calm 30.06 1018 0 0 0.00 0.00
12:32 am 00:32 Mostly Cloudy with Fog 40 4.4 37 2.8 89 89 Calm 30.06 1018 1 1 0.00 0.00
12:50 am 00:50 Mostly Cloudy with Mist and Fog 39 4 37 3 93 93 Calm 30.06 1018 2 2 0.00 0.00
12:53 am 00:53 Mostly Cloudy with Mist and Fog 40 4.4 37 2.8 89 89 Calm 30.06 1018 3 4 0.00 0.00
12:56 am 00:56 Mostly Cloudy with Mist and Fog 39 4 36 2 87 87 Calm 30.06 1018 3 5 0.00 0.00
1:17 am 01:17 Mostly Cloudy with Mist and Fog 40 4.4 37 2.8 89 89 Calm 30.06 1018 2 2 0.00 0.00
1:21 am 01:21 Cloudy with Mist and Fog 41 5 37 2.8 86 86 Calm 30.06 1018 1 1 0.00 0.00
1:49 am 01:49 Cloudy with Mist and Fog 39 4 37 3 93 93 Calm 30.06 1018 1 2 0.00 0.00
1:53 am 01:53 Cloudy with Mist and Fog 40 4.4 37 2.8 89 89 Calm 30.07 1018 2 2 0.00 0.00
2:01 am 02:01 Cloudy with Mist and Fog 40 4.4 37 2.8 89 89 Calm 30.06 1018 3 5 0.00 0.00
2:53 am 02:53 Mostly Cloudy 40 4.4 37 2.8 89 89 Calm 30.09 1019 8 13 0.00 0.00
3:17 am 03:17 Partly Cloudy with Mist and Fog 39 3.9 35 1.7 86 86 Calm 30.09 1019 3 4 0.00 0.00
3:20 am 03:20 Mostly Cloudy with Mist and Fog 39 4 36 2 87 87 Calm 30.09 1019 1 2 0.00 0.00
3:29 am 03:29 Mostly Cloudy with Mist and Fog 39 3.9 36 2.2 89 89 W 3 6 30.09 1019 1 1 0.00 0.00
3:43 am 03:43 Cloudy with Mist and Fog 38 3.3 35 1.7 89 89 Calm 30.09 1019 1 2 0.00 0.00
3:46 am 03:46 Cloudy with Mist and Fog 37 3 36 2 93 93 Calm 30.09 1019 2 3 0.00 0.00
3:53 am 03:53 Cloudy with Mist and Fog 39 3.9 35 1.7 86 86 Calm 30.09 1019 5 8 0.00 0.00
4:10 am 04:10 Cloudy with Mist and Fog 37 3 34 1 87 87 Calm 30.09 1019 2 3 0.00 0.00
4:13 am 04:13 Cloudy with Mist and Fog 38 3.3 34 1.1 86 86 Calm 30.09 1019 1 2 0.00 0.00
4:20 am 04:20 Mostly Cloudy with Mist and Fog 37 3 36 2 93 93 Calm 30.09 1019 2 3 0.00 0.00
4:31 am 04:31 Mostly Cloudy with Mist and Fog 37 2.8 34 1.1 89 89 Calm 30.09 1019 1 2 0.00 0.00
4:39 am 04:39 Mostly Cloudy with Fog 38 3.3 34 1.1 86 86 W 3 6 30.09 1019 1 1 0.00 0.00
4:53 am 04:53 Mostly Cloudy with Fog 37 2.8 34 1.1 89 89 Calm 30.11 1020 1 1 0.00 0.00
5:03 am 05:03 Partly Cloudy with Mist and Fog 37 3 34 1 87 87 Calm 30.12 1020 1 2 0.00 0.00
5:07 am 05:07 Mostly Cloudy with Mist and Fog 37 2.8 34 1.1 89 89 Calm 30.12 1020 1 2 0.00 0.00
5:17 am 05:17 Mostly Cloudy with Fog 37 2.8 33 0.6 86 86 E 3 6 30.12 1020 0 0 0.00 0.00
5:35 am 05:35 Mostly Cloudy with Mist and Fog 36 2.2 33 0.6 89 89 Calm 30.12 1020 1 2 0.00 0.00
5:39 am 05:39 Mostly Cloudy with Mist and Fog 36 2.2 32 0 86 86 Calm 30.12 1020 2 3 0.00 0.00
5:53 am 05:53 Partly Cloudy with Mist and Fog 36 2.2 33 0.6 89 89 Calm 30.14 1021 1 2 0.00 0.00
6:10 am 06:10 Mostly Clear with Mist and Fog 36 2 34 1 93 93 Calm 30.15 1021 6 10 0.00 0.00
6:53 am 06:53 Sunny 36 2.2 33 0.6 89 89 Calm 30.16 1021 7 11 0.00 0.00
7:53 am 07:53 Sunny 41 5 37 2.8 86 86 N 3 6 30.19 1022 10 16 0.00 0.00
8:53 am 08:53 Sunny 48 8.9 42 5.6 80 80 NNE 3 6 30.22 1023 10 16 0.00 0.00
9:53 am 09:53 Sunny 54 12.2 45 7.2 72 72 VRB 5 7 30.22 1023 10 16 0.00 0.00
10:53 am 10:53 Sunny 58 14.4 38 3.3 48 48 N 9 15 30.22 1024 10 16 0.00 0.00
11:53 am 11:53 Sunny 60 15.6 35 1.7 39 39 N 9 15 30.22 1023 10 16 0.00 0.00
12:53 pm 12:53 Sunny 62 16.7 34 1.1 35 35 NNE 13 20 30.21 1023 10 16 0.00 0.00
1:53 pm 13:53 Sunny 62 16.7 33 0.6 34 34 N 12 19 30.21 1023 10 16 0.00 0.00
2:53 pm 14:53 Sunny 63 17.2 35 1.7 35 35 NNE 9 15 30.22 1023 10 16 0.00 0.00
3:53 pm 15:53 Sunny 62 16.7 35 1.7 37 37 NE 7 11 30.22 1023 10 16 0.00 0.00
4:53 pm 16:53 Sunny 58 14.4 37 2.8 46 46 NE 6 9 30.23 1024 10 16 0.00 0.00
5:53 pm 17:53 Clear 52 11.1 38 3.3 59 59 N 3 6 30.25 1024 10 16 0.00 0.00
6:53 pm 18:53 Clear 52 11.1 37 2.8 57 57 N 6 9 30.27 1025 10 16 0.00 0.00
7:53 pm 19:53 Clear 47 8.3 38 3.3 71 71 N 6 9 30.28 1026 10 16 0.00 0.00
8:53 pm 20:53 Clear 49 9.4 39 3.9 69 69 NW 6 9 30.29 1026 10 16 0.00 0.00
9:53 pm 21:53 Clear 45 7.2 38 3.3 77 77 NNW 3 6 30.32 1027 10 16 0.00 0.00
10:53 pm 22:53 Clear 42 5.6 37 2.8 82 82 N 3 6 30.33 1027 10 16 0.00 0.00
11:53 pm 23:53 Clear 40 4.4 36 2.2 86 86 N 3 6 30.34 1028 10 16 0.00 0.00

Powered by AerisWeather